Regional Weather Roundup
Issued by NWS

Home | Current Version | Previous Version | Graphics & Text | Print | Product List | Glossary On
Versions: 1 2 3 4 5 6 7 8 9 10 11 12 13 14 15 16 17 18 19 20 21 22 23 24 25 26 27 28 29 30 31 32 33 34 35 36 37 38 39 40 41 42 43 44 45 46 47 48 49 50
000
ASUS43 KOAX 300810
RWRNE

WEATHER ROUNDUP FOR NEBRASKA
NATIONAL WEATHER SERVICE OMAHA NE
300 AM CDT TUE AUG 30 2016

NOTES: SATELLITE DATA IS BEING USED TO AUGMENT CLOUD COVER ABOVE
       12000 FEET.
       "FAIR" INDICATES FEW OR NO CLOUDS BELOW 12,000 FEET WITH NO
       SIGNIFICANT WEATHER AND/OR OBSTRUCTIONS TO VISIBILITY.

  * THESE STATIONS DO NOT REPORT WEATHER SUCH AS RAIN...SNOW OR FOG.

NEZ001>004-019>022-054>056-300900-
NEBRASKA PANHANDLE

CITY           SKY/WX    TMP DP  RH WIND       PRES   REMARKS
SCOTTSBLUFF    CLEAR     60  57  89 W3        30.27F
ALLIANCE       PTCLDY    56  55  97 CALM      30.27R
CHADRON        CLEAR     58  54  86 SW3       30.24F
SIDNEY         PTCLDY    59  57  93 NW5       30.30S
$$

NEZ057>060-069>072-079>082-300900-
SOUTHWEST NEBRASKA

CITY           SKY/WX    TMP DP  RH WIND       PRES   REMARKS
NORTH PLATTE   LGT RAIN  68  66  93 S5        30.23F
IMPERIAL       CLOUDY    65  62  90 S3        30.25S
LEXINGTON      CLOUDY    68  66  93 CALM      30.21F
MCCOOK         CLOUDY    68  66  93 CALM      30.22F
$$

NEZ005>010-023>029-035>040-094-300900-
NORTH CENTRAL NEBRASKA

CITY           SKY/WX    TMP DP  RH WIND       PRES   REMARKS
VALENTINE      CLOUDY    63  59  87 W3        30.21S
AINSWORTH      CLOUDY    66  65  94 CALM      30.21F
BROKEN BOW     CLOUDY    67  66  97 CALM      30.21F
O`NEILL        MOCLDY    69  65  89 S7        30.20F
ORD            CLOUDY    68  65  90 E8        30.20R
THEDFORD       CLOUDY    65  64  94 CALM      30.23F
$$

NEZ041-046>049-061>064-073>077-083>087-300900-
SOUTH CENTRAL NEBRASKA

CITY           SKY/WX    TMP DP  RH WIND       PRES   REMARKS
GRAND ISLAND   PTCLDY    68  66  93 S6        30.20F
AURORA         CLOUDY    67  67 100 CALM      30.19F
HASTINGS       CLOUDY    68  66  93 S7        30.21F
HEBRON         RAIN      68  67  96 SW7       30.20R
HOLDREGE       CLOUDY    68  66  95 CALM      30.21F
KEARNEY *      MOCLDY    66  64  94 SE6       30.20S
YORK           FOG       66  64  94 CALM      30.19F VSB 1/2
$$

NEZ011>018-030>034-042>045-300900-
NORTHEAST NEBRASKA

CITY           SKY/WX    TMP DP  RH WIND       PRES   REMARKS
NORFOLK        CLOUDY    68  65  90 SW8       30.16F
ALBION         LGT RAIN  67  65  93 CALM      30.20F
BLAIR            N/A     69  68  96 NW6       30.15F
FREMONT        LGT RAIN  69  68  97 CALM      30.16F
TEKAMAH        PTCLDY    67  65  93 NE5       30.16F
WAYNE          CLOUDY    67  66  96 CALM      30.17F
$$

NEZ050>053-065>068-078-088>093-300900-
SOUTHEAST NEBRASKA

CITY           SKY/WX    TMP DP  RH WIND       PRES   REMARKS
LINCOLN        PTCLDY    69  68  96 CALM      30.16F
OMAHA EPPLEY   CLOUDY    70  67  90 NE5       30.14F
BEATRICE       CLOUDY    68  67  98 CALM      30.17S
FALLS CITY     LGT RAIN  70  69  97 SE7       30.15F
NEBRASKA CITY  CLOUDY    68  68 100 CALM      30.15F FOG
PLATTSMOUTH    CLOUDY    68  67  99 CALM      30.15S
$$

NEZ044-045-051>053-067-300900-
OMAHA AREA

CITY           SKY/WX    TMP DP  RH WIND       PRES   REMARKS
OMAHA EPPLEY   CLOUDY    70  67  90 NE5       30.14F
BLAIR            N/A     69  68  96 NW6       30.15F
FREMONT        LGT RAIN  69  68  97 CALM      30.16F
MILLARD        PTCLDY    69  68  96 CALM      30.14F FOG
OFFUTT AFB     CLOUDY    68  68 100 SE3       30.13F
PLATTSMOUTH    CLOUDY    68  67  99 CALM      30.15S
WAHOO          FAIR      68  67  96 W3        30.15F
$$




USA.gov is the U.S. government's official web portal to all federal, state and local government web resources and services.